Location: Unspecified
(40.7945°N, 0.0000°E)
Time: 07:56:55
(UTC+00:00)

Courier 1B - Pass Details

Date: 28 January 2021
Orbit: 962 x 1209 km, 28.3° (Epoch: 25 February)

Event Time Altitude Azimuth Distance (km) Brightness Sun altitude
Rises 20:18:50 0° 213° (SSW) 3,935 11.0 -35.3°
Reaches altitude 10° 20:22:59 10° 192° (SSW) 2,924 10.0 -36.0°
Enters shadow 20:23:06 10° 192° (SSW) 2,902 10.0 -36.1°
Maximum altitude 20:26:51 15° 159° (SSE) 2,494 - -36.8°
Drops below altitude 10° 20:30:38 10° 125° (SE) 2,827 - -37.5°
Sets 20:34:30 0° 104° (ESE) 3,734 - -38.2°
